San Carlos, CA

9:49 AM PDT on March 28, 2017 (GMT -0700)
San Carlos

Weather History for KSQL - August, 2013

Change the Weather History Date:

Saturday, August 17, 2013

  Actual Average Record
Temperature  
Mean Temperature 68 °F -  
Max Temperature 77 °F 81 °F 94 °F (1950)
Min Temperature 60 °F 54 °F 48 °F (1949)
Cooling Degree Days 4    
Growing Degree Days 18 (Base 50)    
Moisture  
Dew Point 55 °F    
Average Humidity 71    
Maximum Humidity 82    
Minimum Humidity 50    
Precipitation  
Precipitation 0.00 in - - ()
Sea Level Pressure  
Sea Level Pressure 29.96 in    
Wind  
Wind Speed 3 mph (WNW)    
Max Wind Speed 13 mph    
Max Gust Speed 17 mph    
Visibility 10 miles    
Events      
Averages and records for this station are not official NWS values.
T = Trace of Precipitation, MM = Missing Value Source: NWS Daily Summary

Daily Weather History Graph

Daily Weather History Graph

Search for Another Location

Airport or City:

Trip Planner

Search our weather history database for the weather conditions in past years. The results will help you decide how hot, cold, wet, or windy it might be!

Date:

Astronomy

Aug. 17, 2013 Rise Set
Actual Time 6:26 AM PDT 7:58 PM PDT
Civil Twilight 5:59 AM PDT 8:25 PM PDT
Nautical Twilight 5:25 AM PDT 8:59 PM PDT
Astronomical Twilight 4:50 AM PDT 9:34 PM PDT
Moon 5:16 PM PDT (8/17) 2:38 AM PDT (8/17)
Length of Visible Light 14h 26m
Length of Day
13h 31m
Waxing Gibbous, 85% of the Moon is Illuminated
Aug 17
Waxing Gibbous
Aug 20
Full
Aug 28
Last Quarter
Sep 5
New
Sep 12
First Quarter

Hourly Weather History & Observations

Time (PDT) Temp. Dew Point Humidity Pressure Visibility Wind Dir Wind Speed Gust Speed Precip Events Conditions
12:15 AM 64.4 °F 51.8 °F 64% 30.00 in 10.0 mi West 3.5 mph - N/A   Clear
12:35 AM 64.4 °F 53.6 °F 68% 30.00 in 10.0 mi SSW 3.5 mph - N/A   Clear
12:55 AM 64.4 °F 53.6 °F 68% 30.00 in 10.0 mi SSW 4.6 mph - N/A   Clear
1:15 AM 62.6 °F 53.6 °F 72% 29.99 in 10.0 mi NW 3.5 mph - N/A   Clear
1:35 AM 62.6 °F 53.6 °F 72% 29.99 in 10.0 mi WSW 3.5 mph - N/A   Clear
1:55 AM 62.6 °F 53.6 °F 72% 29.99 in 10.0 mi Calm Calm - N/A   Clear
2:15 AM 62.6 °F 55.4 °F 77% 29.98 in 10.0 mi Calm Calm - N/A   Clear
2:35 AM 62.6 °F 55.4 °F 77% 29.98 in 10.0 mi Calm Calm - N/A   Clear
2:55 AM 62.6 °F 55.4 °F 77% 29.98 in 10.0 mi Calm Calm - N/A   Clear
3:15 AM 62.6 °F 53.6 °F 72% 29.97 in 10.0 mi Calm Calm - N/A   Clear
3:35 AM 62.6 °F 53.6 °F 72% 29.97 in 10.0 mi NW 3.5 mph - N/A   Clear
3:55 AM 62.6 °F 53.6 °F 72% 29.97 in 10.0 mi NW 4.6 mph - N/A   Clear
4:15 AM 60.8 °F 53.6 °F 77% 29.97 in 10.0 mi WNW 5.8 mph - N/A   Clear
4:35 AM 62.6 °F 53.6 °F 72% 29.97 in 10.0 mi Calm Calm - N/A   Clear
4:55 AM 62.6 °F 53.6 °F 72% 29.98 in 10.0 mi Calm Calm - N/A   Clear
5:15 AM 60.8 °F 53.6 °F 77% 29.98 in 10.0 mi Calm Calm - N/A   Clear
5:35 AM 62.6 °F 53.6 °F 72% 29.98 in 10.0 mi Calm Calm - N/A   Clear
5:55 AM 62.6 °F 53.6 °F 72% 29.98 in 10.0 mi Calm Calm - N/A   Clear
6:15 AM 60.8 °F 53.6 °F 77% 29.99 in 10.0 mi Calm Calm - N/A   Clear
6:35 AM 62.6 °F 53.6 °F 72% 29.99 in 10.0 mi Calm Calm - N/A   Clear
6:47 AM 62.6 °F 53.6 °F 72% 29.99 in 10.0 mi Calm Calm - N/A   Mostly Cloudy
6:55 AM 62.6 °F 53.6 °F 72% 29.99 in 10.0 mi Calm Calm - N/A   Clear
7:47 AM 62.6 °F 55.4 °F 77% 30.00 in 10.0 mi Calm Calm - N/A   Mostly Cloudy
9:50 AM 69.8 °F 55.4 °F 60% 29.99 in 10.0 mi WNW 9.2 mph - N/A   Mostly Cloudy
10:51 AM 66.2 °F 59.0 °F 78% 30.00 in 10.0 mi NE 8.1 mph - N/A   Mostly Cloudy
11:47 AM 66.2 °F 59.0 °F 78% 30.01 in 10.0 mi North 4.6 mph - N/A   Mostly Cloudy
12:47 PM 69.8 °F 57.2 °F 64% 29.98 in 10.0 mi WNW 3.5 mph - N/A   Mostly Cloudy
1:47 PM 73.4 °F 57.2 °F 57% 29.96 in 10.0 mi North 5.8 mph - N/A   Mostly Cloudy
2:55 PM 75.2 °F 55.4 °F 50% 29.94 in 10.0 mi WNW 10.4 mph 16.1 mph N/A   Mostly Cloudy
3:47 PM 77.0 °F 57.2 °F 50% 29.94 in 10.0 mi WNW 9.2 mph - N/A   Mostly Cloudy
4:47 PM 75.2 °F 57.2 °F 53% 29.92 in 10.0 mi West 12.7 mph 17.3 mph N/A   Scattered Clouds
5:47 PM 71.6 °F 57.2 °F 60% 29.92 in 10.0 mi WSW 12.7 mph - N/A   Scattered Clouds
6:47 PM 68.0 °F 57.2 °F 68% 29.91 in 10.0 mi WSW 6.9 mph - N/A   Scattered Clouds
7:50 PM 64.4 °F 57.2 °F 77% 29.91 in 10.0 mi WSW 10.4 mph 16.1 mph N/A   Scattered Clouds
8:47 PM 64.4 °F 57.2 °F 77% 29.92 in 10.0 mi West 4.6 mph - N/A   Scattered Clouds
9:15 PM 64.4 °F 57.2 °F 77% 29.92 in 10.0 mi West 6.9 mph - N/A   Clear
9:35 PM 64.4 °F 57.2 °F 77% 29.92 in 10.0 mi WNW 5.8 mph - N/A   Clear
9:55 PM 62.6 °F 57.2 °F 82% 29.93 in 10.0 mi NW 8.1 mph - N/A   Clear
10:15 PM 62.6 °F 57.2 °F 82% 29.92 in 10.0 mi WNW 9.2 mph - N/A   Clear
10:35 PM 64.4 °F 57.2 °F 77% 29.92 in 10.0 mi NW 3.5 mph - N/A   Clear
10:55 PM 64.4 °F 57.2 °F 77% 29.91 in 10.0 mi WNW 4.6 mph - N/A   Clear
11:15 PM 64.4 °F 57.2 °F 77% 29.91 in 10.0 mi West 4.6 mph - N/A   Clear
11:35 PM 64.4 °F 55.4 °F 73% 29.90 in 10.0 mi WNW 3.5 mph - N/A   Clear
11:55 PM 62.6 °F 55.4 °F 77% 29.90 in 10.0 mi Calm Calm - N/A   Clear